Location: Shepherdstown, WV
(39.4326°N, 77.8042°W)
Time: 18:49:29
(UTC-04:00)

Vanguard 1 Rocket - Pass Details

Date: 12 August 2021
Orbit: 650 x 4226 km, 34.3° (Epoch: 19 September)

Event Time Altitude Azimuth Distance (km) Brightness Sun altitude
Rises 06:02:36 0° 211° (SSW) 7,600 11.6 -4.2°
Reaches altitude 10° 06:07:54 10° 204° (SSW) 6,914 11.4 -3.3°
Maximum altitude 06:30:13 42° 143° (SE) 5,182 11.5 0.8°
Drops below altitude 10° 06:50:37 10° 82° (E) 6,445 14.2 4.5°
Sets 06:55:12 0° 76° (ENE) 7,080 15.0 5.4°
